Miscellaneous Local Product
Issued by NWS Hastings, NE

Home | Current Version | Previous Version | Graphics & Text | Print | Product List | Glossary On
Versions: 1 2 3 4 5 6 7 8 9 10 11 12 13 14 15 16 17 18 19 20 21 22 23 24 25 26 27 28 29 30 31 32 33 34 35 36 37 38 39 40 41 42 43 44 45 46 47 48 49 50
000
AXUS43 KGID 171302
MISGRI

GID CWA HOURLY WEATHER ROUNDUP
NATIONAL WEATHER SERVICE HASTINGS NE
700 AM CST SAT FEB 17 2018

NOTE: "FAIR" INDICATES FEW OR NO CLOUDS BELOW 12,000 FEET WITH NO
SIGNIFICANT WEATHER AND/OR OBSTRUCTIONS TO VISIBILITY.

...SOUTH CENTRAL NEBRASKA...

CITY           SKY/WX    TMP DP  RH WIND       PRES   REMARKS
GRAND ISLAND   PTCLDY    28  19  69 W18       29.89R WCI  15
KEARNEY        PTCLDY    27  19  72 W10       29.92R WCI  17
HASTINGS       CLEAR     24  17  74 W12       29.91R WCI  13
ORD            MOCLDY    28  23  81 NW9       29.89R WCI  19
YORK           MOCLDY    25  19  80 W12       29.89R WCI  14
AURORA         PTCLDY    27  18  70 W15       29.88S WCI  15
LEXINGTON      PTCLDY    21  17  84 NW7       29.93R WCI  12
HOLDREGE       CLEAR     24  19  81 W9        29.93R WCI  14
HEBRON         CLEAR     26  17  70 SW8       29.93R WCI  17

...NEBRASKA PANHANDLE...

CITY           SKY/WX    TMP DP  RH WIND       PRES   REMARKS
CHADRON        CLEAR     24  16  71 W17       29.93R WCI  11
ALLIANCE       CLEAR     21  16  81 W10       29.93R WCI  10
SCOTTSBLUFF    CLEAR     30  17  58 W9        29.96R WCI  22
SIDNEY         CLEAR     28  16  60 NW14      29.95R WCI  17

...WESTERN AND NORTH CENTRAL NEBRASKA...

CITY           SKY/WX    TMP DP  RH WIND       PRES   REMARKS
VALENTINE      PTCLDY    24  19  81 W9        29.90R WCI  14
AINSWORTH      CLEAR     26  23  88 W7        29.90R WCI  18
ONEILL         MOCLDY    28  24  82 W8        29.89R WCI  20
BROKEN BOW     MOCLDY    29  22  75 NW10      29.90R WCI  20
IMPERIAL       CLEAR     31  20  63 NW12      29.97R WCI  22
NORTH PLATTE   CLEAR     21  17  84 NW5       29.94R WCI  15
MCCOOK         CLEAR     31  22  69 NW14      29.96R WCI  21

...EASTERN NEBRASKA...

CITY           SKY/WX    TMP DP  RH WIND       PRES   REMARKS
NORFOLK        CLOUDY    27  20  75 W12       29.87R WCI  17
SO SIOUX CITY  LGT SNOW  24  23  96 CALM      29.89F FOG
TEKAMAH        CLOUDY    27  21  78 SW5       29.90R WCI  22
COLUMBUS       CLOUDY    27  19  72 W10       29.89R WCI  17
ALBION         CLOUDY    28  21  74 NW8       29.89R WCI  20
OMAHA EPPLEY   CLOUDY    29  16  58 S10       29.91R WCI  20
OFFUTT AFB     PTCLDY    27  17  68 SE5       29.91R WCI  21
MILLARD        PTCLDY    29  19  65 SE6       29.91R WCI  23
LINCOLN        PTCLDY    28  17  63 SW10      29.92R WCI  19
NEBRASKA CITY  PTCLDY    26  17  70 S8        29.91S WCI  17
BEATRICE       CLEAR     27  19  74 W8        29.93R WCI  18
FALLS CITY     CLOUDY    32  15  49 S9        29.92S WCI  24

...NORTHERN KANSAS...

CITY           SKY/WX    TMP DP  RH WIND       PRES   REMARKS
GOODLAND       CLEAR     27  19  72 NW10      29.98R WCI  17
HILL CITY      CLEAR     23  17  78 W7        29.96R WCI  15
NORTON         SUNNY     28  19  69 NW12      29.95R WCI  18
PHILLIPSBURG   CLEAR     21  18  86 W5        29.94F WCI  15
SMITH CENTER   CLEAR     18  12  79 SW5       29.96R WCI  11
BELOIT         CLEAR     19  12  73 CALM      29.95R
HAYS           CLOUDY    21  14  74 W7        29.97R WCI  12
RUSSELL        CLOUDY    25  16  68 W9        29.95R WCI  15
CONCORDIA      CLEAR     26  16  65 W10       29.93R WCI  16
SALINA         CLOUDY    28  19  69 W5        29.96R WCI  23
TOPEKA         CLOUDY    32  27  81 S3        29.97R



USA.gov is the U.S. government's official web portal to all federal, state and local government web resources and services.